loading
DOY 198 | 2024-07-16T13:45:55Z

THOR ABLESTAR DEB, 223

Orbit data source: Space-Track

THOR ABLESTAR DEB, 223 is space debris in LEO originally from a launch on Thu, 29 Jun 1961 UTC launched from the Air Force Eastern Test Range (AFETR). Debris objects in space refer to the collection of defunct objects orbiting the Earth. Examples of debris include non-operational satellites, rocket bodies, and fragments generated from explosions, collisions, or faulty payload assembly.

Loading next visibility...
Loading greatness...
THOR ABLESTAR DEB details
NORAD ID223
COSPAR ID
1961-015BK
Orbit
LEO
Last TLE update9 hours ago
Origin
Flag of USUSAF SSD (US)
ManufacturerUnknown
BusUnknown
MotorUnknown
MassWet unknown, Dry mass unknown
Launch date (UTC)
1961-06-29 (63 years ago)
Launch vehicleUnknown
Launch site
Air Force Eastern Test Range (AFETR)
Object type
Payload
Rocket body
Debris
Radar Cross SectionMedium (>0.1 m² and <1 m²)
Predictive object data (real-time)
Latitude-25.01818°
Longitude-164.08164°
Altitude972.022 km
Speed7.35 km/s
Apparent Right ascension14h 08m 58s
Apparent Declination-31° 49' 25"
Sunlit
Object is in daylight
Predictive observer data (real-time)
Local Sidereal Time02:25:01
Azimuth23.097° NE
Elevation-81.281°
Doppler factor1
Orbital elements
Apogee975.989 km
Perigee886.156 km
Semi-major axis7,309.209 km
Eccentricity0.0061452
Inclination66.8883°
RAAN221.5811°
Arg. of periapsis106.7102°
True anomaly253.39758°
Mean anomaly254.0733°
Mean motion3.47326 °/min
BSTAR0.0000874
Period103.65 mins
Definitive object data (Epoch: 2024-07-16T05:15:20.18Z)
Latitude-0.00002°
Longitude-151.79399°
Altitude947.353 km
Speed7.372 km/s
True Right ascension14h 46m 19s
True Declination0° 00' 00"
Sunlit
Object was in daylight at TLE epoch
TLE from 9 hours ago
0 THOR ABLESTAR DEB
1   223U 61015BK  24198.21898357  .00000032  00000-0  87400-4 0  9995
2   223  66.8883 221.5811 0061452 106.7102 254.0733 13.88843185193931
Epoch: 2024-07-16T05:15Z
No data available

THOR ABLESTAR DEB Visibility forecast

Observer location: 39.9160978°, -105.1181434

THOR ABLESTAR DEB is not visible in the next 10 days
Span
Click to sort rows by Start time (UTC) header in descending order
Start Az.
Max El. time (UTC)
Max El. Az.
Max El.
End time (UTC)
End Az.